KLM2505 TNCC-SVMI

Flight info

Callsign KLM2505
Flight time 0h 31m
Altitude 25000
Route REPIS1K REPIS DCT ISISU ALDAK1
Aircraft B777/H-SDE3FGHIM3RWXY/LB1

Departure

Time 2026-04-29 02:57
Airport Hato International Airport (TNCC)

Arrival

Time 2026-04-29 03:28
Airport Maiquetía Simón Bolívar International Airport (SVMI)
Time Latitude Longitude Altitude Speed Heading
2026-04-29 02:49 12.18542 -68.95801 46 ft 0 kts 193°
2026-04-29 02:50 12.18550 -68.95800 46 ft 2 kts 193°
2026-04-29 02:50 12.18567 -68.95796 46 ft 3 kts 193°
2026-04-29 02:51 12.18586 -68.95791 46 ft 3 kts 193°
2026-04-29 02:51 12.18606 -68.95787 46 ft 3 kts 193°
2026-04-29 02:51 12.18626 -68.95782 46 ft 3 kts 193°
2026-04-29 02:51 12.18647 -68.95777 46 ft 3 kts 193°
2026-04-29 02:52 12.18667 -68.95773 46 ft 3 kts 193°
2026-04-29 02:52 12.18673 -68.95771 46 ft 1 kts 193°
2026-04-29 02:52 12.18661 -68.95793 46 ft 2 kts 274°
2026-04-29 02:52 12.18670 -68.95816 46 ft 13 kts 290°
2026-04-29 02:53 12.18708 -68.95956 46 ft 23 kts 282°
2026-04-29 02:53 12.18744 -68.96127 46 ft 26 kts 282°
2026-04-29 02:53 12.18784 -68.96321 46 ft 30 kts 282°
2026-04-29 02:53 12.18830 -68.96540 46 ft 33 kts 282°
2026-04-29 02:54 12.18881 -68.96782 46 ft 36 kts 282°
2026-04-29 02:54 12.18936 -68.97045 46 ft 39 kts 282°
2026-04-29 02:54 12.18991 -68.97307 46 ft 35 kts 282°
2026-04-29 02:54 12.19037 -68.97530 46 ft 29 kts 282°
2026-04-29 02:55 12.19111 -68.97609 46 ft 8 kts 18°
2026-04-29 02:55 12.19186 -68.97565 46 ft 16 kts 44°
2026-04-29 02:55 12.19205 -68.97466 46 ft 7 kts 103°
2026-04-29 02:55 12.19205 -68.97465 46 ft 0 kts 102°
2026-04-29 02:56 12.19180 -68.97345 46 ft 54 kts 102°
2026-04-29 02:56 12.19032 -68.96642 47 ft 146 kts 102°
2026-04-29 02:56 12.18768 -68.95378 156 ft 206 kts 102°
2026-04-29 02:57 12.18457 -68.93924 1035 ft 207 kts 103°
2026-04-29 02:57 12.17850 -68.92640 2148 ft 199 kts 128°
2026-04-29 02:57 12.16718 -68.91875 3091 ft 201 kts 159°
2026-04-29 02:57 12.15261 -68.91582 3945 ft 227 kts 172°
2026-04-29 02:58 12.13613 -68.91418 4675 ft 246 kts 174°
2026-04-29 02:58 12.11923 -68.91194 5425 ft 244 kts 171°
2026-04-29 02:58 12.10254 -68.90854 6177 ft 247 kts 167°
2026-04-29 02:58 12.08544 -68.90382 6964 ft 260 kts 163°
2026-04-29 02:59 12.06814 -68.89792 7983 ft 266 kts 160°
2026-04-29 02:59 12.05056 -68.89109 8994 ft 274 kts 158°
2026-04-29 02:59 12.03281 -68.88359 9999 ft 278 kts 157°
2026-04-29 02:59 12.01493 -68.87564 11005 ft 285 kts 156°
2026-04-29 03:00 11.99622 -68.86705 12032 ft 306 kts 155°
2026-04-29 03:00 11.97625 -68.85770 13053 ft 326 kts 155°
2026-04-29 03:00 11.95509 -68.84769 14073 ft 344 kts 155°
2026-04-29 03:00 11.93289 -68.83711 15087 ft 359 kts 155°
2026-04-29 03:01 11.90998 -68.82616 16094 ft 367 kts 155°
2026-04-29 03:01 11.88715 -68.81522 17082 ft 368 kts 155°
2026-04-29 03:01 11.86393 -68.80409 18083 ft 370 kts 155°
2026-04-29 03:01 11.84045 -68.79283 19089 ft 377 kts 155°
2026-04-29 03:02 11.81647 -68.78134 20095 ft 384 kts 155°
2026-04-29 03:02 11.79207 -68.76964 21041 ft 393 kts 155°
2026-04-29 03:02 11.76656 -68.75723 21120 ft 418 kts 154°
2026-04-29 03:02 11.74916 -68.74833 21065 ft 424 kts 153°
2026-04-29 03:03 11.72304 -68.73442 21018 ft 422 kts 152°
2026-04-29 03:03 11.69722 -68.72024 21004 ft 421 kts 151°
2026-04-29 03:03 11.67157 -68.70585 21001 ft 420 kts 151°
2026-04-29 03:03 11.64601 -68.69136 21000 ft 420 kts 150°
2026-04-29 03:04 11.62047 -68.67676 21000 ft 421 kts 150°
2026-04-29 03:04 11.59498 -68.66214 21000 ft 421 kts 150°
2026-04-29 03:04 11.56948 -68.64750 21000 ft 421 kts 150°
2026-04-29 03:04 11.54396 -68.63283 21000 ft 421 kts 150°
2026-04-29 03:05 11.51845 -68.61818 21000 ft 421 kts 150°
2026-04-29 03:05 11.49295 -68.60354 21000 ft 421 kts 150°
2026-04-29 03:05 11.46742 -68.58890 21000 ft 421 kts 150°
2026-04-29 03:05 11.44192 -68.57429 21000 ft 421 kts 150°
2026-04-29 03:06 11.41637 -68.55966 21000 ft 421 kts 150°
2026-04-29 03:06 11.39086 -68.54506 21000 ft 421 kts 150°
2026-04-29 03:06 11.36529 -68.53044 21000 ft 421 kts 150°
2026-04-29 03:06 11.33973 -68.51584 21000 ft 421 kts 150°
2026-04-29 03:07 11.31418 -68.50124 21000 ft 421 kts 150°
2026-04-29 03:07 11.28862 -68.48665 21000 ft 421 kts 150°
2026-04-29 03:07 11.26309 -68.47208 21000 ft 421 kts 150°
2026-04-29 03:07 11.23757 -68.45752 21000 ft 421 kts 150°
2026-04-29 03:08 11.21204 -68.44295 21000 ft 421 kts 150°
2026-04-29 03:08 11.18704 -68.42740 20995 ft 421 kts 144°
2026-04-29 03:08 11.16557 -68.40776 21001 ft 421 kts 134°
2026-04-29 03:08 11.14674 -68.38495 21003 ft 421 kts 127°
2026-04-29 03:09 11.12991 -68.36057 21003 ft 421 kts 123°
2026-04-29 03:09 11.11435 -68.33534 21002 ft 421 kts 121°
2026-04-29 03:09 11.09950 -68.30961 21001 ft 421 kts 120°
2026-04-29 03:09 11.08510 -68.28372 21001 ft 421 kts 119°
2026-04-29 03:10 11.07084 -68.25766 21000 ft 421 kts 119°
2026-04-29 03:10 11.05664 -68.23160 20997 ft 421 kts 119°
2026-04-29 03:10 11.04235 -68.20544 20644 ft 424 kts 119°
2026-04-29 03:10 11.02807 -68.17945 20151 ft 415 kts 119°
2026-04-29 03:11 11.01407 -68.15416 19649 ft 406 kts 119°
2026-04-29 03:11 11.00021 -68.12930 19148 ft 405 kts 120°
2026-04-29 03:11 10.98621 -68.10435 18649 ft 407 kts 120°
2026-04-29 03:11 10.97213 -68.07942 18180 ft 405 kts 120°
2026-04-29 03:12 10.95807 -68.05463 17750 ft 403 kts 120°
2026-04-29 03:12 10.94406 -68.03006 17369 ft 400 kts 120°
2026-04-29 03:12 10.93008 -68.00563 16993 ft 398 kts 120°
2026-04-29 03:12 10.91615 -67.98133 16617 ft 396 kts 120°
2026-04-29 03:13 10.90228 -67.95720 16241 ft 394 kts 120°
2026-04-29 03:13 10.88848 -67.93323 15866 ft 392 kts 120°
2026-04-29 03:13 10.87472 -67.90936 15483 ft 390 kts 120°
2026-04-29 03:13 10.86105 -67.88567 15039 ft 387 kts 120°
2026-04-29 03:14 10.84744 -67.86209 14588 ft 385 kts 120°
2026-04-29 03:14 10.83394 -67.83872 14138 ft 382 kts 120°
2026-04-29 03:14 10.82050 -67.81545 13686 ft 380 kts 120°
2026-04-29 03:14 10.80716 -67.79237 13236 ft 377 kts 120°
2026-04-29 03:15 10.79383 -67.76950 12784 ft 375 kts 122°
2026-04-29 03:15 10.77765 -67.74904 12321 ft 366 kts 135°
2026-04-29 03:15 10.75834 -67.73365 11921 ft 352 kts 146°
2026-04-29 03:15 10.73719 -67.72162 11611 ft 346 kts 153°
2026-04-29 03:16 10.71536 -67.71189 11310 ft 338 kts 158°
2026-04-29 03:16 10.69381 -67.70379 11003 ft 321 kts 161°
2026-04-29 03:16 10.67316 -67.69681 10694 ft 305 kts 162°
2026-04-29 03:16 10.65335 -67.69042 10386 ft 292 kts 162°
2026-04-29 03:17 10.63419 -67.68425 10082 ft 286 kts 162°
2026-04-29 03:17 10.61533 -67.67800 9752 ft 285 kts 161°
2026-04-29 03:17 10.59776 -67.66911 9418 ft 282 kts 143°
2026-04-29 03:17 10.58508 -67.65405 9172 ft 282 kts 120°
2026-04-29 03:18 10.57916 -67.63522 8938 ft 281 kts 99°
2026-04-29 03:18 10.57791 -67.61544 8696 ft 280 kts 90°
2026-04-29 03:18 10.57874 -67.59572 8523 ft 279 kts 86°
2026-04-29 03:18 10.58033 -67.57611 8348 ft 278 kts 85°
2026-04-29 03:19 10.58209 -67.55654 8173 ft 278 kts 85°
2026-04-29 03:19 10.58377 -67.53701 7993 ft 277 kts 85°
2026-04-29 03:19 10.58528 -67.51751 7750 ft 276 kts 85°
2026-04-29 03:19 10.58660 -67.49806 7524 ft 275 kts 86°
2026-04-29 03:20 10.58775 -67.47870 7299 ft 274 kts 86°
2026-04-29 03:20 10.58878 -67.45937 7074 ft 273 kts 87°
2026-04-29 03:20 10.58971 -67.44010 6848 ft 272 kts 87°
2026-04-29 03:20 10.59057 -67.42094 6623 ft 271 kts 87°
2026-04-29 03:21 10.59138 -67.40179 6398 ft 271 kts 88°
2026-04-29 03:21 10.59215 -67.38271 6172 ft 270 kts 88°
2026-04-29 03:21 10.59289 -67.36370 5947 ft 269 kts 88°
2026-04-29 03:21 10.59361 -67.34475 5722 ft 268 kts 88°
2026-04-29 03:22 10.59432 -67.32585 5496 ft 267 kts 88°
2026-04-29 03:22 10.59496 -67.30704 5271 ft 266 kts 88°
2026-04-29 03:22 10.59551 -67.28855 5061 ft 253 kts 88°
2026-04-29 03:22 10.59600 -67.27142 4828 ft 234 kts 88°
2026-04-29 03:23 10.59642 -67.25525 4517 ft 225 kts 89°
2026-04-29 03:23 10.59634 -67.23949 4203 ft 222 kts 90°
2026-04-29 03:23 10.59643 -67.22425 3892 ft 212 kts 89°
2026-04-29 03:23 10.59671 -67.20946 3532 ft 205 kts 89°
2026-04-29 03:24 10.59712 -67.19591 3200 ft 186 kts 88°
2026-04-29 03:24 10.59763 -67.18308 2829 ft 178 kts 88°
2026-04-29 03:24 10.59815 -67.17083 2623 ft 169 kts 87°
2026-04-29 03:24 10.59865 -67.15906 2519 ft 164 kts 88°
2026-04-29 03:25 10.59910 -67.14754 2514 ft 162 kts 88°
2026-04-29 03:25 10.59952 -67.13613 2499 ft 162 kts 88°
2026-04-29 03:25 10.59991 -67.12462 2475 ft 166 kts 88°
2026-04-29 03:25 10.60029 -67.11288 2254 ft 159 kts 88°
2026-04-29 03:26 10.60067 -67.10145 1962 ft 158 kts 88°
2026-04-29 03:26 10.60104 -67.09032 1736 ft 157 kts 88°
2026-04-29 03:26 10.60141 -67.07941 1526 ft 152 kts 88°
2026-04-29 03:26 10.60178 -67.06868 1329 ft 152 kts 88°
2026-04-29 03:27 10.60216 -67.05785 1148 ft 155 kts 88°
2026-04-29 03:27 10.60253 -67.04707 905 ft 147 kts 88°
2026-04-29 03:27 10.60288 -67.03694 637 ft 148 kts 88°
2026-04-29 03:27 10.60323 -67.02662 492 ft 146 kts 88°
2026-04-29 03:28 10.60359 -67.01641 376 ft 144 kts 88°
2026-04-29 03:28 10.60392 -67.00674 254 ft 123 kts 88°
2026-04-29 03:28 10.60416 -66.99995 253 ft 60 kts 88°
2026-04-29 03:28 10.60424 -66.99756 252 ft 22 kts 88°
2026-04-29 03:29 10.60405 -66.99678 252 ft 15 kts 135°
2026-04-29 03:29 10.60320 -66.99661 252 ft 27 kts 178°
2026-04-29 03:29 10.60168 -66.99656 252 ft 14 kts 199°
2026-04-29 03:29 10.60141 -66.99766 252 ft 28 kts 266°
2026-04-29 03:30 10.60114 -66.99909 252 ft 8 kts 202°
2026-04-29 03:30 10.60016 -66.99903 252 ft 27 kts 179°
2026-04-29 03:30 10.59867 -66.99914 252 ft 17 kts 176°
2026-04-29 03:30 10.59846 -66.99913 252 ft 0 kts 178°